Regional Weather Roundup
Issued by NWS

Home | Current Version | Previous Version | Text Only | Print | Product List | Glossary Off
Versions: 1 2 3 4 5 6 7 8 9 10 11 12 13 14 15 16 17 18 19 20 21 22 23 24 25 26 27 28 29 30 31 32 33 34 35 36 37 38 39 40 41 42 43 44 45 46 47 48 49 50

000
ASUS43 KDTX 031601
RWRMI
MICHIGAN HOURLY REGIONAL WEATHER ROUNDUP
NATIONAL WEATHER SERVICE DETROIT/PONTIAC MI
1100 AM EST SAT DEC 03 2016

NOTE: "FAIR" INDICATES FEW OR NO CLOUDS BELOW 12,000 FEET WITH NO
SIGNIFICANT WEATHER AND/OR OBSTRUCTION TO VISIBILITY.

MIZ047>049-052>055-059>063-066>070-074>076-081>083-031700-
SOUTHEAST LOWER MICHIGAN

CITY           SKY/WX    TMP DP  RH WIND       PRES   REMARKS
ADRIAN         CLOUDY    35  30  82 CALM      30.32F
ALMA           CLOUDY    37  30  78 W8        30.30F WCI  30
ANN ARBOR      CLOUDY    36  30  79 SW9       30.30F WCI  29
BAD AXE        CLOUDY    37  34  88 W7        30.28R WCI  31
CARO           CLOUDY    36  32  85 W9        30.28S WCI  29
DETROIT CITY   CLOUDY    37  30  75 W9        30.31S WCI  30
DETROIT        CLOUDY    38  30  73 W9        30.32S WCI  31
FLINT          CLOUDY    37  30  75 W8        30.30S WCI  31
GROSSE ILE     CLOUDY    38  30  74 NW7       30.30F WCI  32
HILLSDALE      CLOUDY    34  28  80 W5        30.29F WCI  30
HOWELL         CLOUDY    36  31  82 W6        30.29S WCI  31

CITY           SKY/WX    TMP DP  RH WIND       PRES   REMARKS
JACKSON        CLOUDY    35  27  72 NW6       30.30F WCI  30
LAMBERTVILLE   CLOUDY    38  31  76 W5        30.32F WCI  35
LANSING        CLOUDY    36  29  75 W8        30.31F WCI  30
LAPEER         NOT AVBL
MASON          CLOUDY    34  31  86 W5        30.30F WCI  30
MONROE         CLOUDY    38  32  80 W8        30.31F WCI  32
MT. CLEMENS    CLOUDY    39  31  73 W9        30.28S WCI  33
PONTIAC        CLOUDY    35  29  78 W9        30.28S WCI  28
PORT HOPE        N/A     41  33  73 W8        30.24S
PORT HURON     CLOUDY    37  32  81 W8        30.29S WCI  31
TRI CITIES     CLOUDY    37  32  82 W10       30.29F WCI  30
MIDLAND        CLOUDY    37  30  75 W8        30.28S WCI  31
TROY           CLOUDY    38  29  70 W7        30.32S WCI  33
SAGINAW HB     CLOUDY    37  30  75 W13       30.29S WCI  29
$$
MIZ043>046-050>051-056>058-064>065-071>073-077>080-031700-
SOUTHWEST LOWER MICHIGAN

CITY           SKY/WX    TMP DP  RH WIND       PRES   REMARKS
BATTLE CREEK   CLOUDY    36  30  79 CALM      30.30F
BENTON HARBOR  CLOUDY    37  24  59 NW6       30.32F WCI  32
BIG RAPIDS     CLOUDY    36  30  79 W6        30.28S WCI  31
COLDWATER      CLOUDY    36  27  68 W5        30.30F WCI  32
FREMONT        CLOUDY    34  29  82 SW8       30.29F HAZE    WCI  27
HOLLAND        CLOUDY    37  28  70 W7        30.32S WCI  32
GRAND RAPIDS   CLOUDY    36  29  75 NE3       30.31S
IONIA          CLOUDY    36  28  74 W8        30.29S WCI  29
KALAMAZOO      CLOUDY    36  27  69 W7        30.31F WCI  30
LUDINGTON      CLOUDY    35  31  86 W3        30.29F
MARSHALL       CLOUDY    36  30  79 CALM      30.29F
MOUNT PLEASANT CLOUDY    37  31  79 W5        30.28F WCI  33
MUSKEGON       CLOUDY    36  28  73 W6        30.32S WCI  31
SOUTH HAVEN    CLOUDY    38  29  71 W6        30.32S WCI  33
$$
MIZ016>042-031700-
NORTHERN LOWER MICHIGAN

CITY           SKY/WX    TMP DP  RH WIND       PRES   REMARKS
ALPENA         CLOUDY    38  31  76 W6        30.25R WCI  33
BEAVER ISLAND  CLOUDY    38  32  78 NW6       30.26S WCI  34
BELLAIRE       FLURRIES  35  34  96 SW3       30.27S
CADILLAC       LGT SNOW  33  32  96 SW7       30.24F WCI  27
CHARLEVOIX     CLOUDY    39  32  75 NW7       30.28S WCI  34
FRANKFORT      PTSUNNY   38  36  90 W8        30.27S WCI  32
GAYLORD        CLOUDY    36  31  82 CALM      30.23S
GRAYLING       CLOUDY    36  35  94 W3        30.25F
HARBOR SPRINGS CLOUDY    38  32  81 CALM      30.25S
HOUGHTON LAKE  CLOUDY    36  33  89 W6        30.26S WCI  31
MANISTEE       CLOUDY    36  32  85 W12       30.29S WCI  28
OSCODA         CLOUDY    40  33  74 W5        30.25S
PELLSTON       CLOUDY    38  30  73 NW7       30.25S WCI  33
ROGERS CITY    CLOUDY    38  32  79 W7        30.25S WCI  33
TRAVERSE CITY  CLOUDY    39  35  86 VRB3      30.26S
$$
MIZ007>008-015-031700-
EASTERN UPPER MICHIGAN

CITY           SKY/WX    TMP DP  RH WIND       PRES   REMARKS
KINROSS        CLOUDY    34  33  96 W8        30.23S WCI  27
MACKINAC ISLAN CLOUDY    35  31  85 W6        30.24S WCI  30
NEWBERRY       CLOUDY    34  33  97 W6        30.24S WCI  29
S. S. MARIE    LGT SNOW  34  33  96 CALM      30.22S FOG
MUNISING         N/A     35  33  92 CALM      30.26S
$$
MIZ004>006-011>014-085-031700-
CENTRAL UPPER MICHIGAN

CITY           SKY/WX    TMP DP  RH WIND       PRES   REMARKS
MANISTIQUE     CLOUDY    35  32  87 NW7       30.26S WCI  30
ESCANABA       CLOUDY    35  28  75 NW8       30.28S WCI  29
MENOMINEE      CLOUDY    34  28  79 VRB3      30.30S
$$
MIZ001>003-009>011-084-031700-
WESTERN UPPER MICHIGAN

CITY           SKY/WX    TMP DP  RH WIND       PRES   REMARKS
IRON MOUNTAIN  CLOUDY    33  25  72 NW6       30.24F WCI  28
HOUGHTON       CLOUDY    32  29  88 S3        30.24S
COPPER HARBOR    N/A     35  30  82 N6        30.26S WCI  30
IRONWOOD       FLURRIES  29  27  92 SW7       30.26S WCI  22
$$

ABBREVIATIONS USED IN REMARKS
   TC - TEMPERATURE IN CELSIUS
  WCI - WIND CHILL INDEX
   HX - HEAT INDEX
  VSB - VISIBILITY





USA.gov is the U.S. government's official web portal to all federal, state and local government web resources and services.